Capo Bellavista, Italy

11:42 AM CEST on September 29, 2016 (GMT +0200)
Capo Bellavista

Weather History for LIEB - October, 2012

Change the Weather History Date:

Tuesday, October 9, 2012

  Actual Average (LIED) Record (LIED)
Temperature  
Mean Temperature 74 °F -  
Max Temperature 84 °F 75 °F 91 °F (2004)
Min Temperature 65 °F 57 °F 48 °F (1998)
Cooling Degree Days 10    
Growing Degree Days 24 (Base 50)    
Moisture  
Dew Point 62 °F    
Average Humidity 70    
Maximum Humidity 94    
Minimum Humidity 34    
Precipitation  
Precipitation 0.00 in - - ()
Sea Level Pressure  
Sea Level Pressure 29.89 in    
Wind  
Wind Speed 4 mph ()    
Max Wind Speed 10 mph    
Max Gust Speed -    
Visibility 9.1 miles    
Events      
Averages and records for this station are not official NWS values.
T = Trace of Precipitation, MM = Missing Value Source: Averaged Metar Reports

Daily Weather History Graph

Daily Weather History Graph

Search for Another Location

Airport or City:

Trip Planner

Search our weather history database for the weather conditions in past years. The results will help you decide how hot, cold, wet, or windy it might be!

Date:

Astronomy

Oct. 09, 2012 Rise Set
Actual Time 7:25 AM CEST 6:50 PM CEST
Civil Twilight 6:58 AM CEST 7:17 PM CEST
Nautical Twilight 6:27 AM CEST 7:48 PM CEST
Astronomical Twilight 5:55 AM CEST 8:20 PM CEST
Moon 12:46 AM CEST (10/9) 3:07 PM CEST (10/9)
Length of Visible Light 12h 18m
Length of Day
11h 24m
Last Quarter, 39% of the Moon is Illuminated
Oct 9
Last Quarter
Oct 15
New
Oct 22
First Quarter
Oct 29
Full
Nov 7
Last Quarter

Hourly Weather History & Observations

Time (CEST) Temp. Heat Index Dew Point Humidity Pressure Visibility Wind Dir Wind Speed Gust Speed Precip Events Conditions
12:55 AM 68.0 °F - 66.2 °F 94% 29.98 in - WNW 1.2 mph - N/A   Clear
1:55 AM 68.0 °F - 66.2 °F 94% 29.95 in - WSW 2.3 mph - N/A   Clear
2:00 AM 68 °F - 66 °F 90% 29.98 in 6 mi WSW 2.3 mph - -  
2:55 AM 68.0 °F - 66.2 °F 94% 29.92 in - West 3.5 mph - N/A   Clear
3:55 AM 66.2 °F - 62.6 °F 88% 29.98 in - WSW 4.6 mph - N/A   Clear
5:55 AM 66.2 °F - 62.6 °F 88% 29.92 in - West 5.8 mph - N/A   Clear
6:55 AM 66.2 °F - 62.6 °F 88% 29.92 in - West 6.9 mph - N/A   Clear
7:55 AM 68.0 °F - 62.6 °F 83% 29.95 in - WNW 8.1 mph - N/A   Clear
8:00 AM 67 °F - 63 °F 84% 29.94 in 12 mi WNW 8.1 mph - -   Partly Cloudy
8:55 AM 68.0 °F - 62.6 °F 83% 29.92 in - WSW 4.6 mph - N/A   Clear
9:55 AM 69.8 °F - 62.6 °F 78% 29.92 in - SW 4.6 mph - N/A   Clear
10:55 AM 73.4 °F - 64.4 °F 73% 29.92 in - SSW 3.5 mph - N/A   Clear
11:55 AM 73.4 °F - 62.6 °F 69% 29.92 in - South 10.4 mph - N/A   Clear
12:55 PM 77.0 °F - 62.6 °F 61% 29.89 in 6.2 mi South 6.9 mph - N/A   Partly Cloudy
1:55 PM 80.6 °F 82.7 °F 66.2 °F 61% 29.89 in - South 5.8 mph - N/A   Clear
2:00 PM 80 °F - 67 °F 55% 29.87 in 12 mi South 5.8 mph - -  
2:55 PM 77.0 °F - 69.8 °F 78% 29.86 in - West 2.3 mph - N/A   Clear
3:55 PM 80.6 °F 81.8 °F 62.6 °F 54% 29.83 in - South 3.5 mph - N/A   Clear
4:55 PM 78.8 °F - 62.6 °F 57% 29.83 in 6.2 mi South 4.6 mph - N/A   Partly Cloudy
6:55 PM 77.0 °F - 55.4 °F 47% 29.83 in - South 3.5 mph - N/A   Clear
7:55 PM 77.0 °F - 55.4 °F 47% 29.83 in - NNW 9.2 mph - N/A   Clear
8:00 PM 78 °F - 55 °F 34% 29.83 in 12 mi NNW 9.2 mph - -  
8:55 PM 77.0 °F - 55.4 °F 47% 29.83 in - WNW 6.9 mph - N/A   Clear
9:55 PM 75.2 °F - 57.2 °F 53% 29.83 in - WNW 5.8 mph - N/A   Clear
10:55 PM 75.2 °F - 55.4 °F 50% 29.83 in - WNW 4.6 mph - N/A   Clear
11:55 PM 75.2 °F - 62.6 °F 65% 29.83 in - South 6.9 mph - N/A   Clear